Powrót do katalogu

FENGYUN 1C DEB *

AktywnySSO
NORAD 47006·DEBRIS·🇨🇳 China

Wystrzelony May 10, 1999 z Taiyuan Satellite Launch Center

Loading…

Następne Przeloty (najbliższe 24 godziny)

TLE

NieaktualneSource: Space-Track

Epoka: Aug 31, 2026, 23:10 UTC

1 47006U 99025FAG 26243.96559144  .00000667  00000-0  48229-3 0  9999
2 47006  99.1689 307.4153 0083995  78.2728 282.7845 13.98490353864326

Śledź FENGYUN 1C DEB * w czasie rzeczywistym z AllMySat

Download on the App Store